Regional Weather Roundup
Issued by NWS Wakefield, VA

Home | Current Version | Previous Version | Text Only | Print | Product List | Glossary Off
Versions: 1 2 3 4 5 6 7 8 9 10 11 12 13 14 15 16 17 18 19 20 21 22 23 24 25 26 27 28

000
ASUS41 KAKQ 250615
RWRAKQ

REGIONAL WEATHER ROUNDUP
NATIONAL WEATHER SERVICE WAKEFIELD VA
200 AM EDT SUN JUN 25 2017

Note: "fair" indicates few or no clouds below 12,000 feet with no
significant weather and/or obstructions to visibility. * = Denotes
station may not report precipitation (e.g., rain,snow,etc.),
thunder or fog.

VAZ042-051-052>054-056-250700-
NORTHERN VIRGINIA

CITY           SKY/WX    TMP DP  RH WIND       PRES   REMARKS
WASH NATIONAL  PTCLDY    79  57  46 W6        29.97S
DULLES         PTCLDY    69  59  70 CALM      29.99R
FORT BELVOIR   PTCLDY    65  62  91 CALM      29.97S
QUANTICO       MOCLDY    73  62  68 NW5       29.98S
FREDERICKSBRG* PTCLDY    69  64  86 CALM      29.98R
STAFFORD*      MOCLDY    64  64 100 CALM      30.02S
WARRENTON      PTCLDY    64  60  87 CALM      29.98S
CULPEPER*      CLEAR     66  64  94 CALM      30.00S
MANASSAS*      CLEAR     64  63  96 CALM      29.99R
LEESBURG*      CLOUDY   N/A N/A N/A NW6       30.00R
WINCHESTER     MOCLDY    64  57  77 CALM      30.02R
FRONT ROYAL*   CLOUDY    66  57  72 S7        30.02R
LURAY*         CLEAR     63  61  94 CALM      30.04R
$$

VAZ048-049-060>072-079>083-250700-
CENTRAL AND SOUTH CENTRAL VIRGINIA

CITY           SKY/WX    TMP DP  RH WIND       PRES   REMARKS
RICHMOND       PTCLDY    77  70  79 SW8       29.98S
CHESTERFIELD*  MOCLDY    73  70  90 CALM      29.99R
PETERSBURG*    PTCLDY    72  71  97 CALM      30.00S
HANOVER        CLEAR     69  65  86 CALM      29.99R
TAPPAHANNOCK*  CLEAR     68  68 100 CALM      29.97S
QUINTON*       FAIR      71  71 100 CALM      29.97S
CHARLOTTSVILLE CLEAR     67  62  84 CALM      30.00S
GORDONSVILLE*  CLEAR     65  62  90 CALM      30.00S
ORANGE*        CLEAR     64  61  88 CALM      30.00R
LOUISA*        CLEAR     70  66  88 N5        29.99S
BUMPASS*       FAIR      67  67  98 CALM      29.98S
FARMVILLE*     CLEAR     71  69  93 W3        30.00R
CREWE*         FAIR      71  67  87 CALM      30.00S
FORT PICKETT*  FAIR     N/A N/A N/A SW6       30.00F
CHASE CITY*    FAIR      71  71  99 CALM      30.02F
CLARKSVILLE*   CLOUDY    72  72 100 CALM      30.02S
SOUTH HILL*    CLOUDY    72  72 100 SW3       30.07S
LAWRENCEVILLE* CLOUDY    72  71  97 CALM      30.01S
EMPORIA*       CLOUDY    72  70  94 CALM      30.03R
$$

VAZ088>098-250700-
SOUTHEAST VIRGINIA

CITY           SKY/WX    TMP DP  RH WIND       PRES   REMARKS
NORFOLK        CLOUDY    75  73  93 SW8       29.96S
VIRGINIA BEACH CLOUDY    74  71  91 SW8       29.96S
NORFOLK NAVAL  MOCLDY    74  70  87 SW5       29.98R
WEST POINT*    CLEAR     70  69  95 CALM      29.98R
SALUDA*        FAIR      73  73 100 CALM      29.95S
NEWPORT NEWS   CLEAR     76  69  79 W8        29.97R
LANGLEY AFB    PTCLDY    75  70  85 SW9       29.97R
FORT EUSTIS    PTCLDY    76  71  84 W5        29.96R
WILLIAMSBURG*  CLEAR     79  70  73 W5        29.98S
HR EXEC AP*    FAIR      73  70  88 W7        29.96R
FRANKLIN*      MOCLDY    72  72 100 CALM      30.00R
US460-WAKEFLD  CLOUDY    72  72 100 SW5       29.99R
$$

VAZ020-022-025-037-045-250700-
WEST CENTRAL AND SOUTHWEST VIRGINIA

CITY           SKY/WX    TMP DP  RH WIND       PRES   REMARKS
STAUNTON*      CLEAR     59  56  91 CALM      30.08R
WAYNESBORO*    CLEAR     60  58  93 S12       30.07S
HOT SPRINGS VA CLEAR     61  48  63 W10       30.17S
LYNCHBURG      PTCLDY    62  59  90 CALM      30.04R
DANVILLE       CLEAR     67  67 100 CALM      30.04S FOG
SOUTH BOSTON*  FAIR      70  68  95 CALM      30.02F
MARTINSVILLE   MOCLDY    63  62  96 CALM      30.08S
ROANOKE        CLEAR     65  58  78 CALM      30.08R
BLACKSBURG     CLEAR     60  56  89 CALM      30.15R
DUBLIN*        CLEAR     62  54  74 W3        30.14R
MARION*        CLEAR     59  56  89 CALM      30.18S
HILLSVILLE*    CLEAR     64  52  65 CALM      30.14S
RICHLANDS*     MOCLDY    64  58  81 W5        30.17S
WISE*          PTCLDY    61  59  94 CALM      30.19F
ABINGDON*      PTCLDY    68  59  73 CALM      30.15S
$$

MDZ021>025-VAZ099-100-250700-
SOUTHERN MARYLAND AND THE DELMARVA PENINSULA

CITY           SKY/WX    TMP DP  RH WIND       PRES   REMARKS
PATUXENT RIVER CLEAR     69  63  81 W5        29.95S
BAY BRIDGE APT CLEAR     75  63  64 NW7       29.95S
LEONARDTOWN    NOT AVBL
DOVER          CLEAR     73  65  76 W7        29.93F
GEORGETOWN     PTCLDY    68  64  87 CALM      29.95F
EASTON         CLEAR     69  64  84 CALM      29.99S
CAMBRIDGE      CLEAR     66  64  94 CALM      29.95S
SALISBURY      PTCLDY    68  66  93 CALM      29.95S
OCEAN CITY     PTCLDY    71  69  93 CALM      29.95F
WALLOPS ISLAND MOCLDY    71  70  96 CALM      29.94F
ACCOMACK*      PTCLDY    73  71  93 CALM      29.95S
$$

NCZ012>017-030>032-250700-
NORTH CENTRAL AND EASTERN NORTH CAROLINA

CITY           SKY/WX    TMP DP  RH WIND       PRES   REMARKS
ROANOKE RAPIDS FAIR      70  70 100 CALM      30.02R
RALEIGH        CLOUDY    71  70  96 CALM      30.04R
ELIZABETH CITY MOCLDY    72  72 100 SW5       29.98S
AHOSKIE*         N/A     70  69  99 CALM      30.01R
EDENTON*       MOCLDY    76  73  89 CALM      30.00S
CURRITUCK*       N/A    N/A N/A N/A W6        29.99R
KILL DEVIL HLS MOCLDY    74  74 100 SW5       29.97R
MANTEO         CLOUDY    75  74  96 W12       29.99R
CAPE HATTERAS  RAIN      75  73  93 W13G21    30.00F FOG
TARBORO*       NOT AVBL
GOLDSBORO      CLOUDY    73  73 100 CALM      30.00S
WASHINGTON     CLOUDY   N/A N/A N/A S5        30.01S HAZE
GREENVILLE     CLOUDY    73  73 100 SW6       30.02S
NEW BERN       CLOUDY    74  74 100 SW5       30.02S
WILMINGTON     CLOUDY    77  77 100 SW6       30.02F
$$

VAZ048-250700-
ELSEWHERE

CITY           SKY/WX    TMP DP  RH WIND       PRES   REMARKS
HARRISBURG PA  PTCLDY    69  62  78 NW6       29.96S
BALTIMORE      PTCLDY    70  61  73 W5        29.96S
ANNAPOLIS      CLEAR     71  69  93 NW3       29.94F
ANDREWS AFB    CLEAR     68  61  79 SW5       29.96S
PHILADELPHIA   PTCLDY    74  61  63 W8        29.93S
HENDERSON NC   RAIN      69  67  94 CALM      30.04S
GREENSBORO     MOCLDY    70  70 100 CALM      30.04S
ROCKY MOUNT    CLOUDY    72  72 100 CALM      30.01S
$$

VAZ100-250700-
MARINE

STATION/POSITION TIME  TEMP    WIND        PRES    WAVE   SWELL
                       AIR SEA DIR/SP/G            HT/PER HT/PER
                 (UTC) (F)     (DEG/KT/KT) (MB)    (FT/S) (FT/S)
BRANDYWINE LGT   0536          270/  9/  9 1014.2F
CAPE MAY NJ      0548          130/  1/  2 1013.7F
LEWES DE         0548          220/  5/  6 1013.9F
15NM E FENWICK I 0550   70 68  230/  6/  6 1014.4F   4/ 7   3/ 7
WACHAPREAGUE VA  0548          250/  3/  4 1014.0R
THOMAS POINT MD  0600   76 78  300/  7/  9   N/A
GOOSES REEF MD   0600   78 80  310/  6/  6 1015.1    0
COVE POINT MD    0548          260/  3/  4 1014.8F
SOLOMONS ISLAND  0536           CALM  /  2   N/A
BISHOPS HEAD MD  0548           CALM  /  1 1014.2F
PINEY POINT MD   0548           20/  3/  4   N/A
POTOMAC MD       0600   78 79   CALM  /  2 1013.2    1
CAMBRIDGE MD     0548                      1014.7F
LEWISETTA VA     0548          260/  2/  2 1014.1S
RAPPAHANNOCK LGT 0548          220/ 13/ 15 1014.6F
STINGRAY PT      0600   79 79  340/  4/  6 1014.2    0
YORK RVR RNG VA  0548          260/ 11/ 12 1014.8S
YORKTOWN VA      0548          240/  9/ 12 1014.3S
JAMESTOWN VA     0600   76 83  250/  8/ 12   N/A
DOMINION TERM VA 0548          240/ 10/ 12 1014.9R
KIPTOPEKE VA     0548          240/  8/ 10   N/A
CHES BAY BRIDGE  0548          250/ 11/ 12 1014.4R
CAPE HENRY VA    0548          230/  7/  9   N/A
WILLOUBY STN VA  0548          230/ 13/ 14 1014.5R
S CRANEY ISL VA  0548          230/  5/  7 1014.6S
CAPE HENRY BUOY  0530      74                N/A     2/ 9
1ST LANDING BUOY 0600   76 73              1014.6    1
CAPE CHARLES BUO 0521      72                N/A     2/10
64NM E OF VA BCH 0550   73 72  240/  6/ 10 1015.2R   5/ 7   3/ 7
DUCK PIER NC     0548          270/  5/  6 1014.7R
44100 DUCK FRF   0505      71                N/A     2/ 7
OREGON INLET NC  0536          220/ 12/ 13 1014.8F
HATTERAS NC      0548          230/ 11/ 15 1015.6F
DIAMOND SHLS NC  0550   77 80  240/ 14/ 16 1016.1R   6/ 7   3/ 7
CAPE LOOKOUT NC  0600   75     220/  9/ 12 1015.7F
$$




USA.gov is the U.S. government's official web portal to all federal, state and local government web resources and services.